Westerly, RI

3:27 AM EDT on May 28, 2017 (GMT -0400)
Westerly State

Weather History for KWST - June, 2013

Change the Weather History Date:

Saturday, June 15, 2013

  Actual Average (KGON) Record (KGON)
Temperature  
Mean Temperature 66 °F -  
Max Temperature 78 °F 75 °F 91 °F (1988)
Min Temperature 57 °F 55 °F 39 °F (1978)
Cooling Degree Days 1    
Growing Degree Days 16 (Base 50)    
Moisture  
Dew Point 52 °F    
Average Humidity 61    
Maximum Humidity 90    
Minimum Humidity 33    
Precipitation  
Precipitation 0.00 in - - ()
Sea Level Pressure  
Sea Level Pressure 29.91 in    
Wind  
Wind Speed 6 mph (West)    
Max Wind Speed 12 mph    
Max Gust Speed 17 mph    
Visibility 10 miles    
Events      
Averages and records for this station are not official NWS values.
T = Trace of Precipitation, MM = Missing Value Source: NWS Daily Summary

Daily Weather History Graph

Daily Weather History Graph

Search for Another Location

Airport or City:

Trip Planner

Search our weather history database for the weather conditions in past years. The results will help you decide how hot, cold, wet, or windy it might be!

Date:

Astronomy

Jun. 15, 2013 Rise Set
Actual Time 5:13 AM EDT 8:22 PM EDT
Civil Twilight 4:39 AM EDT 8:56 PM EDT
Nautical Twilight 3:56 AM EDT 9:39 PM EDT
Astronomical Twilight 3:04 AM EDT 10:31 PM EDT
Moon 11:49 AM EDT (6/15) No Moon Set
Length of Visible Light 16h 16m
Length of Day
15h 09m
Waxing Crescent, 39% of the Moon is Illuminated
Jun 15
Waxing Crescent
Jun 16
First Quarter
Jun 23
Full
Jun 30
Last Quarter
Jul 8
New

Hourly Weather History & Observations

Time (EDT) Temp. Dew Point Humidity Pressure Visibility Wind Dir Wind Speed Gust Speed Precip Events Conditions
12:53 AM 57.9 °F 55.0 °F 90% 29.82 in 10.0 mi West 3.5 mph - N/A   Clear
1:53 AM 61.0 °F 55.9 °F 83% 29.82 in 10.0 mi NW 3.5 mph - N/A   Clear
2:53 AM 60.1 °F 55.0 °F 83% 29.83 in 10.0 mi NW 4.6 mph - N/A   Clear
3:53 AM 60.1 °F 55.0 °F 83% 29.85 in 10.0 mi NW 5.8 mph - N/A   Clear
4:53 AM 59.0 °F 54.0 °F 83% 29.86 in 10.0 mi NNW 4.6 mph - N/A   Clear
5:53 AM 59.0 °F 54.0 °F 83% 29.88 in 10.0 mi NNW 6.9 mph - N/A   Clear
6:53 AM 62.1 °F 54.0 °F 75% 29.89 in 10.0 mi NNW 9.2 mph - N/A   Clear
7:53 AM 66.0 °F 53.1 °F 63% 29.91 in 10.0 mi NNW 8.1 mph 17.3 mph N/A   Clear
8:53 AM 69.1 °F 50.0 °F 51% 29.94 in 10.0 mi North 10.4 mph - N/A   Clear
9:53 AM 72.0 °F 50.0 °F 46% 29.95 in 10.0 mi North 8.1 mph - N/A   Clear
10:53 AM 73.9 °F 45.0 °F 35% 29.95 in 10.0 mi NNW 8.1 mph 16.1 mph N/A   Clear
11:53 AM 75.0 °F 45.0 °F 34% 29.94 in 10.0 mi West 6.9 mph - N/A   Clear
12:53 PM 75.9 °F 45.0 °F 33% 29.95 in 10.0 mi West 6.9 mph - N/A   Clear
1:53 PM 75.9 °F 51.1 °F 42% 29.94 in 10.0 mi SSW 9.2 mph - N/A   Clear
2:53 PM 75.9 °F 52.0 °F 43% 29.93 in 10.0 mi WSW 6.9 mph - N/A   Clear
3:53 PM 75.0 °F 51.1 °F 43% 29.92 in 10.0 mi SW 9.2 mph - N/A   Clear
4:53 PM 75.0 °F 52.0 °F 44% 29.92 in 10.0 mi SW 11.5 mph 17.3 mph N/A   Clear
5:53 PM 73.0 °F 51.1 °F 46% 29.91 in 10.0 mi WSW 8.1 mph - N/A   Clear
6:53 PM 72.0 °F 48.9 °F 44% 29.92 in 10.0 mi WSW 9.2 mph - N/A   Clear
7:53 PM 70.0 °F 51.1 °F 51% 29.93 in 10.0 mi SW 5.8 mph - N/A   Clear
8:53 PM 66.0 °F 54.0 °F 65% 29.94 in 10.0 mi SW 4.6 mph - N/A   Clear
9:53 PM 64.9 °F 55.9 °F 73% 29.96 in 10.0 mi WSW 5.8 mph - N/A   Clear
10:53 PM 64.0 °F 57.0 °F 78% 29.97 in 10.0 mi WSW 4.6 mph - N/A   Clear
11:53 PM 63.0 °F 57.9 °F 84% 29.97 in 10.0 mi WSW 4.6 mph - N/A   Clear